JA3VQW-13 Hirakata JP current weather conditions

sailwx.info

Wind from 187

Air temperature 31.1° C
Dewpoint 4.7° C

Last reported at 2014-Sep-23 07:29 UTC.
Time now 2014-Sep-23 08:23 UTC

Location: N 34°48' E 135°40'.
View on Google Maps.

See reports from other nearby stations

  
Tides and Currents Weather Stations Pressure Air Temp Water Temp Dewpoint Dewpoint Depression Visibility Wind Speed Wind Dir Waves Ship Positions
date/time (UTC)wind fromknots sea level pressurealtimeterstation pressurevisibilityair tempwater tempwave heightnotes
2014-Sep-23 07:29 187 31.1
2014-Sep-23 06:59 298 32.2
2014-Sep-23 06:29 287 34.4
2014-Sep-23 05:59 292 33.9
2014-Sep-23 05:29 180 35.0
2014-Sep-23 05:20 180 34.4
2014-Sep-23 04:50 292 34.4
2014-Sep-23 04:32 135 33.3
2014-Sep-23 04:02 135 32.2
2014-Sep-23 03:50 158 32.2
2014-Sep-23 03:28 270 32.2
2014-Sep-23 02:58 135 31.7
2014-Sep-23 02:28 315 30.6
2014-Sep-23 01:58 135 29.4
2014-Sep-23 01:28 135 26.1
2014-Sep-23 00:58 135 25.0
2014-Sep-23 00:29 135 22.2
2014-Sep-22 23:59 135 21.1
2014-Sep-22 23:29 135 20.6
2014-Sep-22 22:59 135 19.4
2014-Sep-22 22:29 135 18.3
2014-Sep-22 21:59 135 17.8
2014-Sep-22 21:39 135 17.8
2014-Sep-22 21:10 135 17.2
2014-Sep-22 20:40 135 17.2
2014-Sep-22 20:10 135 17.2
2014-Sep-22 19:40 135 17.8
2014-Sep-22 19:10 135 17.8
2014-Sep-22 18:40 135 18.3
2014-Sep-22 18:10 135 18.3
2014-Sep-22 17:40 135 18.9
2014-Sep-22 17:10 135 18.3
2014-Sep-22 16:40 270 19.4
2014-Sep-22 16:10 270 19.4
2014-Sep-22 15:40 270 20.0
2014-Sep-22 15:10 270 20.0
2014-Sep-22 14:40 270 20.6
2014-Sep-22 14:10 270 21.1
2014-Sep-22 13:40 270 21.1
2014-Sep-22 13:10 270 21.7
2014-Sep-22 12:40 270 21.7
2014-Sep-22 12:10 270 21.7
2014-Sep-22 11:40 270 22.2
2014-Sep-22 11:10 270 22.2
2014-Sep-22 10:40 270 22.8
2014-Sep-22 10:10 270 23.3
2014-Sep-22 09:40 270 24.4
2014-Sep-22 09:10 270 25.6
2014-Sep-22 08:40 248 27.8
2014-Sep-22 08:10 090 30.0
2014-Sep-22 07:40 297 31.1
2014-Sep-22 07:10 292 32.2
2014-Sep-22 06:40 292 32.8
2014-Sep-22 06:10 270 33.9
2014-Sep-22 05:40 270 33.3
2014-Sep-22 05:10 270 33.9
2014-Sep-22 04:40 285 0 gusting 4 33.3
2014-Sep-22 04:10 292 32.2
2014-Sep-22 03:40 292 31.1
2014-Sep-22 03:10 292 31.7
2014-Sep-22 02:40 292 30.6
2014-Sep-22 02:10 292 29.4
2014-Sep-22 01:40 292 28.3
2014-Sep-22 01:10 292 26.7
2014-Sep-22 00:40 292 24.4
2014-Sep-22 00:10 292 23.3
2014-Sep-21 23:40 292 22.2
2014-Sep-21 23:10 292 21.7
2014-Sep-21 22:40 292 20.6
2014-Sep-21 22:10 292 19.4
2014-Sep-21 21:40 292 19.4
2014-Sep-21 21:10 292 19.4
2014-Sep-21 20:40 292 19.4
2014-Sep-21 20:10 292 19.4
2014-Sep-21 19:40 292 20.0
2014-Sep-21 19:10 292 20.0
2014-Sep-21 18:40 292 20.6
2014-Sep-21 18:10 292 20.6
2014-Sep-21 17:40 292 20.6
2014-Sep-21 17:10 292 20.6
2014-Sep-21 16:40 292 21.1
2014-Sep-21 16:10 292 21.1
2014-Sep-21 15:40 292 21.1
2014-Sep-21 15:10 292 21.7
2014-Sep-21 14:40 292 21.7
2014-Sep-21 14:10 292 22.2
2014-Sep-21 13:40 292 22.2
2014-Sep-21 13:10 292 22.8
2014-Sep-21 12:40 292 22.8
2014-Sep-21 12:10 292 23.3
2014-Sep-21 11:40 292 23.9
2014-Sep-21 11:10 292 23.9
2014-Sep-21 10:40 292 24.4
2014-Sep-21 10:10 292 24.4
2014-Sep-21 09:40 292 25.0
2014-Sep-21 09:10 292 26.1
2014-Sep-21 08:40 292 27.2
2014-Sep-21 08:10 292 29.4